Aeroporto :
LOGIN :

Iscrizione | Disclaimer

   EN    FR    IT 

 










Sommario :    VFR   VFR Marginale   IFR   IFR Intensivo   IFR Molto Intensivo
Visibilità : 
Base nubi : 
>= 8 km
>= 3000ft
5 / 8 km
1000 / 3000 ft
1500m / 5 km
500 / 1000 ft
800 / 1500m
200 / 500 ft
< 800m
< 200 ft
Simboli :   Temporali  Nebbia  Neve Forte  Precipitazioni Forti  Vento > 20 kt
SIGMETs :   Varie  Temporali  Ghiacco  Turbolenza  Onda orograficha  Ceneri Vulcaniche






- Altitudine del aeroporto : 53 ft
- Codice IATA : LBC


EDHL - Lübeck

ULTIMO METAR :
  • 080320Z AUTO 12010KT 080V160 9000 // OVC007/// 01/M00 Q1001

METARs OBSOLETI :
  • 080250Z AUTO 13010KT 090V160 9000 // BKN008/// 01/M00 Q1001
  • 080220Z AUTO 13011G21KT 090V170 9000 // OVC007/// 01/M00 Q1001
  • 080150Z AUTO 13008G19KT 090V180 8000 // OVC007/// 01/M00 Q1002
  • 080120Z AUTO 12010KT 080V150 7000 // OVC007/// 01/M00 Q1002

Previsioni scadute.



MetMap, La meteo Aeronautica in un colpo d'occhio ! - Copyright ORBIFLY Dicembre 2007 - Disclaimer

ORBIFLY MET'MAP TEAM :

Programmazione e sviluppo : Alexandra Zaïnal
Concezione : Baudouin d'Aumeries
Aiuto per la programmazione : Marc-Olivier Méhu
Supporto tecnico e logistico : Manuel Goepfert
Aiuto per la traduzione : Arnaldo La Scala

Contatto : metmap@orbifly.com




FONTI E CREDITI :

   NOAA